Simultaneous Nadir Overpasses (SNOs) Predictions

Prediction of SNOs between METOP-C and LANDSAT-8 Satellite Orbit:

Table of predicted SNOs for the next 14.0 days since TLE Epoch: 12/3/2022
Index Date (METOP-C) Time (METOP-C) Lat,Lon (METOP-C) SZA (METOP-C ) Date (LANDSAT-8) Time (LANDSAT-8) Lat,Lon (LANDSAT-8) SZA (LANDSAT-8 ) Distance(km) Time Diff (sec)
1 12/05/2022 07:50:04 -80.10, -94.00 76.64 12/05/2022 07:51:18 -79.71, -92.44 76.86 53.54 74
2 12/05/2022 08:39:56 81.12, 90.06 105.68 12/05/2022 08:39:58 81.12, 89.88 105.66 2.97 2
3 12/05/2022 09:30:36 -81.13,-102.33 74.29 12/05/2022 09:29:24 -81.14,-102.20 74.30 2.39 72
4 12/08/2022 03:23:40 -81.09, -11.87 74.16 12/08/2022 03:24:47 -81.08, -11.88 74.14 0.35 67
5 12/08/2022 04:14:19 81.11, 156.19 105.94 12/08/2022 04:14:12 81.11, 156.20 105.94 0.16 7
6 12/10/2022 22:58:03 -81.09, 54.56 73.92 12/10/2022 22:59:01 -81.10, 54.73 73.88 3.08 58
7 12/10/2022 23:48:42 81.12,-137.34 106.18 12/10/2022 23:48:26 81.12,-137.21 106.19 2.30 16
8 12/13/2022 18:32:25 -81.10, 121.33 73.70 12/13/2022 18:33:15 -81.10, 121.25 73.69 1.37 50
9 12/13/2022 19:23:04 81.13, -70.53 106.40 12/13/2022 19:22:40 81.13, -70.73 106.37 3.32 24
10 12/16/2022 14:06:47 -81.10,-172.32 73.60 12/16/2022 14:07:28 -81.10,-172.34 73.58 0.27 41



Historial Predications of SNOs between METOP-C and LANDSAT-8
